When you browse on this site, cookies collect data to enhance your experience and personalize the content and advertising you see.
Visit our Privacy Policy to learn more. By continuing to use the site, you agree to this use of cookies and data.
  • En España
  • Lista de países
  • Para 7 días
  • Temperatura del agua
  • Mapa Satelital
  • El tiempo en el mapa
  • Informadores
  • user-avatar
    Iniciar sesión

    Tiempo cada hora Aktobe

    Hoy, 21 Junio, Viernes

    Tiempo Temperatura Precipitaciones Viento Presión Humedad
    00:00 +20°C° 0 mm 3 mps 738 mmHg 62%
    01:00 +20°C° 0 mm 3 mps 738 mmHg 66%
    02:00 +19°C° 0 mm 2 mps 738 mmHg 67%
    03:00 +19°C° 0 mm 2 mps 738 mmHg 69%
    04:00 +18°C° 0 mm 2 mps 739 mmHg 71%
    05:00 +20°C° 0 mm 2 mps 739 mmHg 67%
    06:00 +21°C° 0 mm 3 mps 739 mmHg 62%
    07:00 +24°C° 0 mm 3 mps 740 mmHg 58%
    08:00 +25°C° 0 mm 3 mps 740 mmHg 52%
    09:00 +27°C° 0 mm 3 mps 740 mmHg 46%
    10:00 +29°C° 0 mm 3 mps 741 mmHg 40%
    11:00 +29°C° 0 mm 4 mps 740 mmHg 38%
    12:00 +30°C° 0 mm 4 mps 740 mmHg 35%
    13:00 +32°C° 0 mm 4 mps 740 mmHg 33%
    14:00 +32°C° 0 mm 4 mps 740 mmHg 33%
    15:00 +32°C° 0 mm 4 mps 740 mmHg 33%
    16:00 +32°C° 0 mm 4 mps 741 mmHg 33%
    17:00 +30°C° 0 mm 4 mps 741 mmHg 37%
    18:00 +29°C° 0 mm 4 mps 741 mmHg 40%
    19:00 +28°C° 0 mm 4 mps 741 mmHg 44%
    20:00 +26°C° 0 mm 4 mps 741 mmHg 50%
    21:00 +25°C° 0 mm 4 mps 741 mmHg 57%
    22:00 +22°C° 0 mm 4 mps 742 mmHg 63%
    23:00 +21°C° 0 mm 4 mps 742 mmHg 64%

    Mañana, 22 Junio, Sábado

    Tiempo Temperatura Precipitaciones Viento Presión Humedad
    00:00 +20°C° 0 mm 4 mps 742 mmHg 65%
    01:00 +19°C° 0 mm 3 mps 742 mmHg 66%
    02:00 +19°C° 0 mm 4 mps 742 mmHg 64%
    03:00 +18°C° 0 mm 4 mps 743 mmHg 61%
    04:00 +18°C° 0 mm 4 mps 743 mmHg 58%
    05:00 +19°C° 0 mm 4 mps 743 mmHg 58%
    06:00 +20°C° 0 mm 4 mps 744 mmHg 57%
    07:00 +21°C° 0 mm 4 mps 744 mmHg 57%
    08:00 +22°C° 0 mm 4 mps 744 mmHg 54%
    09:00 +25°C° 0 mm 4 mps 744 mmHg 50%
    10:00 +26°C° 0 mm 4 mps 745 mmHg 47%
    11:00 +27°C° 0 mm 4 mps 745 mmHg 43%
    12:00 +28°C° 0 mm 3 mps 745 mmHg 38%
    13:00 +29°C° 0 mm 3 mps 745 mmHg 34%
    14:00 +29°C° 0 mm 3 mps 745 mmHg 32%
    15:00 +30°C° 0 mm 3 mps 744 mmHg 31%
    16:00 +30°C° 0 mm 2 mps 744 mmHg 29%
    17:00 +29°C° 0 mm 3 mps 744 mmHg 32%
    18:00 +29°C° 0 mm 3 mps 744 mmHg 35%
    19:00 +28°C° 0 mm 3 mps 744 mmHg 38%
    20:00 +26°C° 0 mm 3 mps 745 mmHg 40%
    21:00 +24°C° 0 mm 3 mps 745 mmHg 43%
    22:00 +22°C° 0 mm 3 mps 745 mmHg 46%
    23:00 +21°C° 0 mm 3 mps 745 mmHg 47%

    Pasado mañana, 23 Junio, Domingo

    Tiempo Temperatura Precipitaciones Viento Presión Humedad
    00:00 +20°C° 0 mm 3 mps 745 mmHg 48%
    01:00 +19°C° 0 mm 3 mps 745 mmHg 49%
    02:00 +19°C° 0 mm 2 mps 745 mmHg 50%
    03:00 +18°C° 0 mm 2 mps 745 mmHg 51%
    04:00 +18°C° 0 mm 2 mps 745 mmHg 51%
    05:00 +20°C° 0 mm 2 mps 745 mmHg 48%
    06:00 +22°C° 0 mm 3 mps 746 mmHg 44%
    07:00 +24°C° 0 mm 3 mps 746 mmHg 41%
    08:00 +26°C° 0 mm 3 mps 746 mmHg 38%
    09:00 +28°C° 0 mm 3 mps 746 mmHg 35%
    10:00 +30°C° 0 mm 3 mps 746 mmHg 33%
    11:00 +31°C° 0 mm 3 mps 745 mmHg 31%
    12:00 +33°C° 0 mm 3 mps 745 mmHg 29%
    13:00 +34°C° 0 mm 3 mps 745 mmHg 27%
    14:00 +34°C° 0 mm 3 mps 745 mmHg 27%
    15:00 +34°C° 0 mm 4 mps 744 mmHg 26%
    16:00 +35°C° 0 mm 4 mps 744 mmHg 26%
    17:00 +34°C° 0 mm 4 mps 744 mmHg 29%
    18:00 +33°C° 0 mm 4 mps 743 mmHg 32%
    19:00 +32°C° 0 mm 4 mps 743 mmHg 35%
    20:00 +28°C° 0 mm 3 mps 743 mmHg 38%
    21:00 +26°C° 0 mm 3 mps 743 mmHg 42%
    22:00 +24°C° 0 mm 2 mps 743 mmHg 45%
    23:00 +23°C° 0 mm 2 mps 743 mmHg 49%

    24 Junio, Lunes

    Tiempo Temperatura Precipitaciones Viento Presión Humedad
    00:00 +23°C° 0 mm 1 mps 743 mmHg 52%
    01:00 +22°C° 0 mm 1 mps 743 mmHg 56%
    02:00 +21°C° 0 mm 1 mps 743 mmHg 58%
    03:00 +19°C° 0 mm 0 mps 743 mmHg 60%
    04:00 +18°C° 0 mm 0 mps 743 mmHg 62%
    05:00 +20°C° 0 mm 0 mps 743 mmHg 55%
    06:00 +23°C° 0 mm 0 mps 743 mmHg 48%
    07:00 +25°C° 0 mm 0 mps 743 mmHg 42%
    08:00 +28°C° 0 mm 1 mps 743 mmHg 39%
    09:00 +30°C° 0 mm 2 mps 743 mmHg 36%
    10:00 +31°C° 0 mm 3 mps 743 mmHg 34%
    11:00 +33°C° 0 mm 3 mps 743 mmHg 32%
    12:00 +34°C° 0 mm 4 mps 742 mmHg 29%
    13:00 +36°C° 0 mm 5 mps 742 mmHg 27%
    14:00 +36°C° 0 mm 5 mps 742 mmHg 27%
    15:00 +36°C° 0 mm 6 mps 742 mmHg 27%
    16:00 +36°C° 0 mm 6 mps 741 mmHg 26%
    17:00 +35°C° 0 mm 5 mps 741 mmHg 30%
    18:00 +34°C° 0 mm 4 mps 741 mmHg 33%
    19:00 +33°C° 0 mm 4 mps 741 mmHg 37%
    20:00 +30°C° 0 mm 3 mps 741 mmHg 43%
    21:00 +28°C° 0 mm 3 mps 741 mmHg 50%
    22:00 +26°C° 0 mm 2 mps 741 mmHg 56%
    23:00 +25°C° 0 mm 2 mps 741 mmHg 62%

    25 Junio, Martes

    Tiempo Temperatura Precipitaciones Viento Presión Humedad
    00:00 +24°C° 0 mm 1 mps 740 mmHg 68%
    01:00 +23°C° 0 mm 1 mps 740 mmHg 74%
    02:00 +23°C° 0 mm 1 mps 740 mmHg 74%
    03:00 +23°C° 0 mm 1 mps 740 mmHg 75%
    04:00 +23°C° 0 mm 1 mps 740 mmHg 76%
    05:00 +24°C° 0 mm 2 mps 741 mmHg 75%
    06:00 +23°C° 0 mm 4 mps 741 mmHg 73%
    07:00 +25°C° 0 mm 5 mps 741 mmHg 72%
    08:00 +25°C° 0 mm 4 mps 741 mmHg 67%
    09:00 +26°C° 0 mm 3 mps 741 mmHg 62%
    10:00 +27°C° 0 mm 2 mps 741 mmHg 56%
    11:00 +27°C° 0.1 mm 4 mps 741 mmHg 57%
    12:00 +26°C° 0.1 mm 6 mps 741 mmHg 58%
    13:00 +26°C° 0.1 mm 8 mps 741 mmHg 59%
    14:00 +26°C° 0.2 mm 7 mps 740 mmHg 58%
    15:00 +26°C° 0.2 mm 5 mps 740 mmHg 57%
    16:00 +26°C° 0.2 mm 4 mps 740 mmHg 56%
    17:00 +26°C° 0 mm 4 mps 740 mmHg 52%
    18:00 +26°C° 0 mm 4 mps 740 mmHg 49%
    19:00 +26°C° 0 mm 4 mps 739 mmHg 45%
    20:00 +23°C° 0 mm 4 mps 739 mmHg 50%
    21:00 +21°C° 0 mm 4 mps 739 mmHg 55%
    22:00 +19°C° 0 mm 4 mps 739 mmHg 60%
    23:00 +18°C° 0 mm 4 mps 739 mmHg 62%

    26 Junio, Miércoles

    Tiempo Temperatura Precipitaciones Viento Presión Humedad
    00:00 +17°C° 0 mm 4 mps 739 mmHg 64%
    01:00 +16°C° 0 mm 3 mps 739 mmHg 66%
    02:00 +14°C° 0 mm 3 mps 738 mmHg 69%
    03:00 +14°C° 0 mm 3 mps 738 mmHg 71%
    04:00 +13°C° 0 mm 3 mps 738 mmHg 73%
    05:00 +14°C° 0 mm 4 mps 738 mmHg 68%
    06:00 +15°C° 0 mm 4 mps 738 mmHg 63%
    07:00 +18°C° 0 mm 4 mps 738 mmHg 58%
    08:00 +19°C° 0 mm 5 mps 738 mmHg 52%
    09:00 +20°C° 0 mm 5 mps 738 mmHg 46%
    10:00 +22°C° 0 mm 5 mps 738 mmHg 40%
    11:00 +22°C° 0 mm 5 mps 738 mmHg 38%
    12:00 +23°C° 0 mm 5 mps 738 mmHg 36%
    13:00 +24°C° 0 mm 6 mps 738 mmHg 34%
    14:00 +24°C° 0 mm 6 mps 738 mmHg 33%
    15:00 +24°C° 0 mm 6 mps 738 mmHg 32%
    16:00 +24°C° 0 mm 6 mps 737 mmHg 32%
    17:00 +23°C° 0 mm 6 mps 737 mmHg 35%
    18:00 +22°C° 0 mm 6 mps 737 mmHg 39%
    19:00 +21°C° 0 mm 6 mps 737 mmHg 42%
    20:00 +19°C° 0 mm 5 mps 737 mmHg 47%
    21:00 +17°C° 0 mm 5 mps 737 mmHg 52%
    22:00 +15°C° 0 mm 4 mps 737 mmHg 57%
    23:00 +15°C° 0 mm 4 mps 737 mmHg 61%
    Mostrar más